FW6296 Weather Reports


Display with metric or nautical units.
time (UTC)temp
F
wind
direction
speed
MPH
gust
MPH
rain 1hr
in
rain 24hr
in
rain mn
in
humidity
%
barometer
mb
20260904102517 76 241 0.0 2.0 0.00 0.00 0.00 83 1013.0
20260904101517 75 226 0.0 3.0 0.00 0.00 0.00 84 1013.1
20260904100517 75 227 0.0 2.0 0.00 0.00 0.00 85 1013.3
20260904095517 76 0.0 0.0 0.00 0.00 0.00 84 1013.3
20260904094517 76 0.0 0.0 0.00 0.00 0.00 84 1013.3
20260904093518 76 0.0 0.0 0.00 0.00 0.00 84 1013.3
20260904092518 76 218 0.0 2.0 0.00 0.00 0.00 84 1013.5
20260904091518 77 0.0 0.0 0.00 0.00 0.00 83 1013.6
20260904090518 77 0.0 0.0 0.00 0.00 0.00 82 1013.7
20260904085518 77 0.0 0.0 0.00 0.00 0.00 81 1013.6
20260904084515 78 0.0 0.0 0.00 0.00 0.00 80 1013.5
20260904083535 78 237 0.0 2.0 0.00 0.00 0.00 80 1013.3
20260904082516 78 232 0.0 3.0 0.00 0.00 0.00 80 1013.2
20260904081516 78 250 1.0 4.0 0.00 0.00 0.00 80 1013.1
20260904080516 78 222 1.0 4.0 0.00 0.00 0.00 80 1012.9
20260904075516 79 236 0.0 3.0 0.00 0.00 0.00 80 1012.9
20260904074516 79 233 1.0 6.0 0.00 0.00 0.00 81 1012.8
20260904073556 79 224 0.0 3.0 0.00 0.00 0.00 81 1012.9
20260904072516 78 226 1.0 3.0 0.00 0.00 0.00 82 1013.0
20260904071517 78 270 0.0 2.0 0.00 0.00 0.00 82 1013.1
20260904070537 78 86 0.0 2.0 0.00 0.00 0.00 83 1013.2
20260904065517 79 112 0.0 1.0 0.00 0.00 0.00 83 1013.3
20260904064558 79 201 0.0 3.0 0.00 0.00 0.00 82 1013.5
20260904063518 79 105 0.0 1.0 0.00 0.00 0.00 82 1013.6
20260904062518 79 86 0.0 1.0 0.00 0.00 0.00 82 1013.8
20260904061538 79 95 0.0 2.0 0.00 0.00 0.00 82 1013.8
20260904060518 79 102 0.0 3.0 0.00 0.00 0.00 83 1013.9
20260904055539 79 78 0.0 2.0 0.00 0.00 0.00 83 1013.9
20260904054515 79 81 0.0 2.0 0.00 0.00 0.00 82 1014.0
20260904053536 79 69 0.0 2.0 0.00 0.00 0.00 82 1013.9
20260904052516 79 49 0.0 3.0 0.00 0.00 0.00 82 1013.8
20260904051516 79 138 0.0 3.0 0.00 0.00 0.00 81 1013.7
20260904050556 79 81 0.0 4.0 0.00 0.00 0.00 82 1013.7
20260904045516 79 101 1.0 3.0 0.00 0.00 0.00 83 1013.8
20260904044517 79 75 0.0 3.0 0.00 0.00 0.00 83 1013.8
20260904043517 79 85 0.0 3.0 0.00 0.00 0.00 81 1013.9
20260904042517 80 77 0.0 4.0 0.00 0.00 0.00 80 1014.0
20260904041517 80 105 0.0 3.0 0.00 0.00 0.00 81 1014.0
20260904040517 80 91 1.0 3.0 0.00 0.00 0.00 80 1014.0
20260904035517 81 49 0.0 2.0 0.00 0.00 0.00 79 1014.0
20260904034538 81 89 0.0 3.0 0.00 0.00 0.00 79 1014.1
20260904033518 81 85 0.0 2.0 0.00 0.00 0.00 79 1014.0
20260904032518 81 77 0.0 3.0 0.00 0.00 0.00 78 1014.1
20260904031518 81 106 0.0 2.0 0.00 0.00 0.00 79 1014.1
20260904030516 81 74 0.0 4.0 0.00 0.00 0.00 82 1014.2
20260904025515 81 0 0.0 2.0 0.00 0.00 0.00 83 1014.2
20260904024515 81 85 0.0 4.0 0.00 0.00 0.00 83 1014.1
20260904023516 81 66 0.0 2.0 0.00 0.00 0.00 83 1014.0
20260904022516 82 67 0.0 3.0 0.00 0.00 0.00 82 1013.9
20260904021516 82 85 0.0 3.0 0.00 0.00 0.00 83 1013.8
20260904020536 82 71 0.0 3.0 0.00 0.00 0.00 82 1013.7
20260904015516 82 71 0.0 3.0 0.00 0.00 0.00 82 1013.5
20260904014517 83 86 0.0 3.0 0.00 0.00 0.00 81 1013.4
20260904013517 83 102 1.0 5.0 0.00 0.00 0.00 80 1013.2
20260904012517 84 56 1.0 4.0 0.00 0.00 0.00 80 1013.0
20260904011518 84 117 1.0 5.0 0.00 0.00 0.00 79 1013.0
20260904010517 85 94 1.0 5.0 0.00 0.00 0.00 78 1012.8
20260904005517 85 77 1.0 4.0 0.00 0.00 0.00 77 1012.6
20260904004518 86 82 0.0 5.0 0.00 0.00 0.00 76 1012.7
20260904003518 87 79 0.0 3.0 0.00 0.00 0.00 75 1012.6
20260904002518 88 61 0.0 3.0 0.00 0.00 0.00 72 1012.7
20260904001518 89 75 0.0 3.0 0.00 0.00 0.00 70 1012.6
20260904000535 89 0.0 0.0 0.00 0.00 0.00 70 1012.7
20260903235515 90 23 0.0 2.0 0.00 0.00 0.00 68 1012.7
20260903234536 91 28 0.0 3.0 0.00 0.00 0.00 65 1012.7
20260903233516 92 35 0.0 3.0 0.00 0.00 0.00 63 1012.7
20260903232536 92 73 0.0 2.0 0.00 0.00 0.00 63 1012.7
20260903231516 92 58 0.0 3.0 0.00 0.00 0.00 62 1012.9
20260903230516 92 262 0.0 3.0 0.00 0.00 0.00 62 1013.0
20260903225517 92 46 0.0 3.0 0.00 0.00 0.00 63 1013.2
20260903224517 91 39 0.0 2.0 0.00 0.00 0.00 63 1013.2
20260903223517 92 74 0.0 4.0 0.00 0.00 0.00 62 1013.1
20260903222517 92 255 0.0 3.0 0.00 0.00 0.00 61 1013.2
20260903221517 93 63 0.0 4.0 0.00 0.00 0.00 60 1013.1
20260903220517 94 70 0.0 3.0 0.00 0.00 0.00 58 1013.1
20260903215538 95 0 0.0 3.0 0.00 0.00 0.00 56 1013.1
20260903214538 95 344 1.0 4.0 0.00 0.00 0.00 55 1013.1
20260903213518 95 19 0.0 3.0 0.00 0.00 0.00 55 1013.1
20260903212518 96 155 0.0 4.0 0.00 0.00 0.00 54 1013.2
20260903211518 96 93 0.0 3.0 0.00 0.00 0.00 53 1013.1
20260903210516 96 70 1.0 4.0 0.00 0.00 0.00 52 1013.2
20260903205516 96 22 0.0 4.0 0.00 0.00 0.00 51 1013.3
20260903204516 96 342 0.0 2.0 0.00 0.00 0.00 51 1013.4
20260903203516 94 327 0.0 3.0 0.00 0.00 0.00 52 1013.5
20260903202516 93 79 1.0 3.0 0.00 0.00 0.00 54 1013.5
20260903201517 93 90 4.0 7.0 0.00 0.00 0.00 55 1013.5
20260903200516 93 81 1.0 3.0 0.00 0.00 0.00 54 1013.6
20260903195517 93 89 3.0 6.0 0.00 0.00 0.00 56 1013.7
20260903194517 93 98 1.0 6.0 0.00 0.00 0.00 55 1013.9
20260903193517 92 89 1.0 4.0 0.00 0.00 0.00 56 1014.0
20260903192518 92 83 2.0 6.0 0.00 0.00 0.00 57 1014.1
20260903191518 92 90 3.0 6.0 0.00 0.00 0.00 57 1014.2
20260903190518 92 89 1.0 4.0 0.00 0.00 0.00 57 1014.3
20260903185518 91 84 2.0 6.0 0.00 0.00 0.00 57 1014.4
20260903184518 91 90 3.0 7.0 0.00 0.00 0.00 58 1014.5
20260903183518 91 73 3.0 7.0 0.00 0.00 0.00 58 1014.5
20260903182517 91 54 2.0 5.0 0.00 0.00 0.00 58 1014.6
20260903181516 91 83 4.0 10.0 0.00 0.00 0.00 58 1014.6
20260903180517 91 40 2.0 5.0 0.00 0.00 0.00 59 1014.6
20260903175516 92 20 3.0 6.0 0.00 0.00 0.00 59 1014.8
20260903174516 92 75 2.0 5.0 0.00 0.00 0.00 58 1014.8
20260903173517 91 346 1.0 5.0 0.00 0.00 0.00 58 1014.8
20260903172517 91 326 2.0 6.0 0.00 0.00 0.00 58 1014.8
20260903171516 91 313 2.0 5.0 0.00 0.00 0.00 59 1014.9
20260903170517 91 331 3.0 10.0 0.00 0.00 0.00 58 1014.9
20260903165517 91 315 2.0 5.0 0.00 0.00 0.00 57 1014.8
20260903164517 92 295 2.0 5.0 0.00 0.00 0.00 58 1014.6
20260903163517 92 278 2.0 5.0 0.00 0.00 0.00 59 1014.4
20260903162517 91 281 1.0 4.0 0.00 0.00 0.00 59 1014.4
20260903161518 91 274 2.0 4.0 0.00 0.00 0.00 59 1014.3
20260903160517 90 285 1.0 4.0 0.00 0.00 0.00 61 1014.3
20260903155518 89 269 1.0 5.0 0.00 0.00 0.00 62 1014.3
20260903154518 89 272 2.0 6.0 0.00 0.00 0.00 62 1014.3
20260903153535 88 273 1.0 7.0 0.00 0.00 0.00 63 1014.3
20260903152516 88 270 2.0 5.0 0.00 0.00 0.00 63 1014.3
20260903151517 88 265 2.0 6.0 0.00 0.00 0.00 63 1014.4
20260903150517 87 271 2.0 6.0 0.00 0.00 0.00 64 1014.4
20260903145516 87 259 2.0 5.0 0.00 0.00 0.00 65 1014.4
20260903144536 86 262 2.0 6.0 0.00 0.00 0.00 66 1014.5
20260903143516 85 275 3.0 6.0 0.00 0.00 0.00 67 1014.4
20260903142517 85 272 3.0 6.0 0.00 0.00 0.00 68 1014.3
20260903141516 84 259 2.0 6.0 0.00 0.00 0.00 71 1014.3
20260903140517 84 255 2.0 7.0 0.00 0.00 0.00 71 1014.3
20260903135517 83 257 1.0 4.0 0.00 0.00 0.00 71 1014.3
20260903134517 83 265 2.0 6.0 0.00 0.00 0.00 72 1014.3
20260903133518 82 262 2.0 4.0 0.00 0.00 0.00 72 1014.3
20260903132517 81 258 0.0 3.0 0.00 0.00 0.00 74 1014.3
20260903131520 81 244 1.0 4.0 0.00 0.00 0.00 75 1014.4
20260903130518 80 239 0.0 3.0 0.00 0.00 0.00 76 1014.6
20260903125518 79 219 0.0 2.0 0.00 0.00 0.00 78 1014.6
20260903124518 77 228 0.0 4.0 0.00 0.00 0.00 80 1014.6
20260903123516 77 237 0.0 2.0 0.00 0.00 0.00 81 1014.6
20260903122515 76 246 0.0 2.0 0.00 0.00 0.00 83 1014.6
20260903121516 75 0.0 0.0 0.00 0.00 0.00 83 1014.5
20260903120536 75 0.0 0.0 0.00 0.00 0.00 84 1014.5
20260903115518 75 0.0 0.0 0.00 0.00 0.00 84 1014.5
20260903114516 75 0.0 0.0 0.00 0.00 0.00 84 1014.5
20260903113516 75 0.0 0.0 0.00 0.00 0.00 84 1014.5
20260903112537 75 0.0 0.0 0.00 0.00 0.00 83 1014.3
20260903111516 76 0.0 0.0 0.00 0.00 0.00 83 1014.3
20260903110518 76 0.0 0.0 0.00 0.00 0.00 82 1014.4
20260903105517 76 0.0 0.0 0.00 0.00 0.00 82 1014.3
20260903104517 76 0.0 0.0 0.00 0.00 0.00 82 1014.3
20260903103517 77 284 0.0 1.0 0.00 0.00 0.00 81 1014.3